Home   Weather   Clearwater   Past weeks
Flag for USA

Past Weather in Clearwater, Florida, USA — Yesterday and Last 2 Weeks

Now
80 °F

Passing clouds.


Feels Like: 85 °F
Forecast: 90 / 79 °F
Wind: 6 mph from North

Location: St. Petersburg / Clearwater International Airport

Current Time: Sep 15, 2019 at 4:06:19 am

Latest Report: Sep 15, 2019 at 3:23 am


Visibility: 10 mi

Pressure: 29.95 "Hg

Humidity: 85%

Dew Point: 75 °F

Location of ClearwaterLocation

Past Weather in Clearwater — Graph

°F

Clearwater Temperature Yesterday

Maximum temperature yesterday: 92 °F (at 3:53 pm)
Minimum temperature yesterday: 79 °F (at 5:53 am)
Average temperature yesterday: 84 °F

High & Low Weather Summary for the Past Weeks

 TemperatureHumidityPressure
High94 °F (Sep 1, 2:53 pm)91% (Sep 1, 4:22 pm)30.19 "Hg (Sep 1, 4:22 pm)
Low74 °F (Sep 7, 4:53 am)41% (Sep 10, 2:53 pm)29.77 "Hg (Sep 3, 3:53 am)
Average85 °F70%29.96 "Hg
* Reported Aug 31 2:53 am — Sep 15 2:53 am, Clearwater. Weather by CustomWeather, © 2019

Note: Actual official high and low records may vary slightly from our data, if they occured in-between our weather recording intervals... More about our weather records

Advertising

Clearwater Weather History for the Previous 24 Hours

Scroll right to see more
 ConditionsComfort  
Time TempWeatherWind HumidityBarometerVisibility
2:53 am
Sun, Sep 15
80 °FPassing clouds.8 mph85%29.95 "Hg10 mi
1:53 am81 °FClear.12 mph79%29.96 "Hg10 mi
12:53 am81 °FPassing clouds.9 mph79%29.97 "Hg10 mi
11:53 pm
Sat, Sep 14
82 °FClear.9 mph77%29.99 "Hg10 mi
10:53 pm83 °FPassing clouds.13 mph72%29.99 "Hg10 mi
9:53 pm83 °FClear.12 mph72%29.99 "Hg10 mi
8:53 pm84 °FPassing clouds.15 mph70%29.97 "Hg10 mi
7:53 pm85 °FPassing clouds.16 mph68%29.95 "Hg10 mi
6:53 pm86 °FSunny.14 mph67%29.93 "Hg10 mi
5:53 pm87 °FSunny.14 mph65%29.92 "Hg10 mi
4:53 pm86 °FScattered clouds.15 mph67%29.93 "Hg10 mi
3:53 pm92 °FScattered clouds.12 mph56%29.94 "Hg10 mi
2:53 pm89 °FSunny.18 mph59%29.95 "Hg10 mi
1:53 pm87 °FCloudy.25 mph63%29.97 "Hg10 mi
12:53 pm91 °FScattered clouds.16 mph56%29.98 "Hg10 mi
11:53 am88 °FPassing clouds.13 mph61%30.00 "Hg10 mi
10:53 am87 °FScattered clouds.10 mph65%30.01 "Hg10 mi
9:53 am85 °FPassing clouds.12 mph70%30.01 "Hg10 mi
8:53 am82 °FPassing clouds.13 mph77%30.00 "Hg10 mi
7:53 am79 °FPassing clouds.10 mph84%29.99 "Hg10 mi
6:53 am79 °FClear.13 mph82%29.98 "Hg10 mi
5:53 am79 °FClear.10 mph82%29.98 "Hg10 mi
4:53 am80 °FClear.10 mph79%29.98 "Hg10 mi
Weather by CustomWeather, © 2019

See weather overview